Location: Wapato
(46.4478°N, 120.4212°W)
Time: 23:45:23
(UTC+00:00)

Vanguard 1 Rocket - Pass Details

Date: 14 May 2026
Orbit: 656 x 4211 km, 34.3° (Epoch: 7 June)

Event Time Altitude Azimuth Distance (km) Brightness Sun altitude
Rises 07:32:14 0° 275° (W) 7,600 12.2 -24.6°
Reaches altitude 10° 07:41:28 10° 255° (WSW) 7,107 11.8 -24.8°
Maximum altitude 07:51:31 14° 231° (SW) 7,009 11.5 -24.9°
Enters shadow 07:57:34 13° 216° (SW) 7,149 11.5 -24.9°
